Kamikawa Maru — JG5687 — position and weather

sailwx.info

Track history (hours):
 
Tides and Currents Weather Stations Pressure Air Temp Water Temp Dewpoint Dewpoint Depression Visibility Wind Speed Wind Dir Waves Ship Positions

Kamikawa Maru

Last reported at 2017-Nov-19 10:10 UTC. Time now 2017-Nov-20 17:39 UTC.
Position N 34°54' E 139°26'.

Length 162 m; draft 6.8 m.

Type: Cargo ship. MMSI: 431101012.

Date/timePositionNaut miles runAvg speedWind from/ knotsBaromVisibWave heightAir tempDewpointWater temp
2017-Nov-19 10:10N 34°54' E 139°26'319.4
2017-Nov-19 10:00N 34°56' E 139°29'1019.2
2017-Nov-19 09:31N 35°03' E 139°38'918.4
2017-Nov-19 09:00N 35°10' E 139°45'713.4
2017-Nov-19 08:30N 35°17' E 139°45'714.1
2017-Nov-19 08:00N 35°23' E 139°42'1019.3
2017-Nov-19 07:30N 35°30' E 139°51'815.5
2017-Nov-19 07:00N 35°37' E 139°46'1 2.4
2017-Nov-19 06:28N 35°38' E 139°46'0 0.0
2017-Nov-19 05:58N 35°38' E 139°46'0 0.1
2017-Nov-19 05:28N 35°38' E 139°46'0 0.0
2017-Nov-19 04:52N 35°38' E 139°46'0 0.0
2017-Nov-19 04:28N 35°38' E 139°46'0 0.0
2017-Nov-19 03:58N 35°38' E 139°46'0 0.0
2017-Nov-19 03:28N 35°38' E 139°46'0 0.0
2017-Nov-19 02:55N 35°38' E 139°46'0 0.0
2017-Nov-19 02:25N 35°38' E 139°46'0 0.0
2017-Nov-19 01:58N 35°38' E 139°46'0 0.0
2017-Nov-19 01:28N 35°38' E 139°46'0 0.0
2017-Nov-19 00:55N 35°38' E 139°46'0 0.0
2017-Nov-19 00:28N 35°38' E 139°46'0 0.0
2017-Nov-18 23:58N 35°38' E 139°46'0 0.6
2017-Nov-18 23:30N 35°38' E 139°46'713.0
2017-Nov-18 23:00N 35°33' E 139°51'715.1
2017-Nov-18 22:30N 35°26' E 139°48'612.9
2017-Nov-18 22:00N 35°20' E 139°44'611.4
2017-Nov-18 21:30N 35°15' E 139°47'713.4
2017-Nov-18 21:00N 35°08' E 139°46'815.7
2017-Nov-18 20:30N 35°01' E 139°42'814.4
2017-Nov-18 19:58N 34°54' E 139°46'  
2017-Nov-14 13:56N 34°53' E 140°02'1218.0
2017-Nov-14 13:17N 34°51' E 139°48'619.7
2017-Nov-14 13:00N 34°54' E 139°42'816.4
2017-Nov-14 12:31N 35°02' E 139°42'919.0
2017-Nov-14 12:01N 35°11' E 139°46'713.2
2017-Nov-14 11:30N 35°17' E 139°45'714.1
2017-Nov-14 11:00N 35°24' E 139°43'918.8
2017-Nov-14 10:30N 35°31' E 139°51'815.2
2017-Nov-14 09:59N 35°38' E 139°46'0 0.0
2017-Nov-13 23:36N 35°38' E 139°46'0 2.4
2017-Nov-13 23:28N 35°38' E 139°46'713.9
2017-Nov-13 23:00N 35°33' E 139°51'816.1
2017-Nov-13 22:30N 35°25' E 139°48'713.4
2017-Nov-13 22:00N 35°19' E 139°44'28 0.8
2017-Nov-12 09:03N 34°55' E 139°26'219.6
2017-Nov-12 08:57N 34°57' E 139°28'819.1
2017-Nov-12 08:30N 35°02' E 139°36'1019.2
2017-Nov-12 08:00N 35°09' E 139°44'715.0
2017-Nov-12 07:31N 35°16' E 139°46'713.8
2017-Nov-12 07:01N 35°22' E 139°42'1019.1
2017-Nov-12 06:31N 35°29' E 139°50'815.6
2017-Nov-12 06:00N 35°36' E 139°46'2 0.3
2017-Nov-11 23:36N 35°38' E 139°46'0 1.1
2017-Nov-11 23:30N 35°38' E 139°46'611.3
2017-Nov-11 23:00N 35°34' E 139°50'713.4
2017-Nov-11 22:30N 35°27' E 139°49'713.5
2017-Nov-11 22:00N 35°21' E 139°45'511.1
2017-Nov-11 21:31N 35°16' E 139°47'612.4
2017-Nov-11 21:00N 35°10' E 139°47'815.7
2017-Nov-11 20:30N 35°02' E 139°44'1013.0
2017-Nov-11 19:46N 34°53' E 139°48'916.5
2017-Nov-11 19:12N 34°54' E 139°60'  
Track history (hours):
 
Tides and Currents Weather Stations Pressure Air Temp Water Temp Dewpoint Dewpoint Depression Visibility Wind Speed Wind Dir Waves Ship Positions

Kamikawa Maru

Last reported at 2017-Nov-19 10:10 UTC. Time now 2017-Nov-20 17:39 UTC.
Position N 34°54' E 139°26'.

Length 162 m; draft 6.8 m.

Type: Cargo ship. MMSI: 431101012.

Date/timePositionNaut miles runAvg speedWind from/ knotsBaromVisibWave heightAir tempDewpointWater temp
2017-Nov-19 10:10N 34°54' E 139°26'319.4
2017-Nov-19 10:00N 34°56' E 139°29'1019.2
2017-Nov-19 09:31N 35°03' E 139°38'918.4
2017-Nov-19 09:00N 35°10' E 139°45'713.4
2017-Nov-19 08:30N 35°17' E 139°45'714.1
2017-Nov-19 08:00N 35°23' E 139°42'1019.3
2017-Nov-19 07:30N 35°30' E 139°51'815.5
2017-Nov-19 07:00N 35°37' E 139°46'1 2.4
2017-Nov-19 06:28N 35°38' E 139°46'0 0.0
2017-Nov-19 05:58N 35°38' E 139°46'0 0.1
2017-Nov-19 05:28N 35°38' E 139°46'0 0.0
2017-Nov-19 04:52N 35°38' E 139°46'0 0.0
2017-Nov-19 04:28N 35°38' E 139°46'0 0.0
2017-Nov-19 03:58N 35°38' E 139°46'0 0.0
2017-Nov-19 03:28N 35°38' E 139°46'0 0.0
2017-Nov-19 02:55N 35°38' E 139°46'0 0.0
2017-Nov-19 02:25N 35°38' E 139°46'0 0.0
2017-Nov-19 01:58N 35°38' E 139°46'0 0.0
2017-Nov-19 01:28N 35°38' E 139°46'0 0.0
2017-Nov-19 00:55N 35°38' E 139°46'0 0.0
2017-Nov-19 00:28N 35°38' E 139°46'0 0.0
2017-Nov-18 23:58N 35°38' E 139°46'0 0.6
2017-Nov-18 23:30N 35°38' E 139°46'713.0
2017-Nov-18 23:00N 35°33' E 139°51'715.1
2017-Nov-18 22:30N 35°26' E 139°48'612.9
2017-Nov-18 22:00N 35°20' E 139°44'611.4
2017-Nov-18 21:30N 35°15' E 139°47'713.4
2017-Nov-18 21:00N 35°08' E 139°46'815.7
2017-Nov-18 20:30N 35°01' E 139°42'814.4
2017-Nov-18 19:58N 34°54' E 139°46'  
2017-Nov-14 13:56N 34°53' E 140°02'1218.0
2017-Nov-14 13:17N 34°51' E 139°48'619.7
2017-Nov-14 13:00N 34°54' E 139°42'816.4
2017-Nov-14 12:31N 35°02' E 139°42'919.0
2017-Nov-14 12:01N 35°11' E 139°46'713.2
2017-Nov-14 11:30N 35°17' E 139°45'714.1
2017-Nov-14 11:00N 35°24' E 139°43'918.8
2017-Nov-14 10:30N 35°31' E 139°51'815.2
2017-Nov-14 09:59N 35°38' E 139°46'0 0.0
2017-Nov-13 23:36N 35°38' E 139°46'0 2.4
2017-Nov-13 23:28N 35°38' E 139°46'713.9
2017-Nov-13 23:00N 35°33' E 139°51'816.1
2017-Nov-13 22:30N 35°25' E 139°48'713.4
2017-Nov-13 22:00N 35°19' E 139°44'28 0.8
2017-Nov-12 09:03N 34°55' E 139°26'219.6
2017-Nov-12 08:57N 34°57' E 139°28'819.1
2017-Nov-12 08:30N 35°02' E 139°36'1019.2
2017-Nov-12 08:00N 35°09' E 139°44'715.0
2017-Nov-12 07:31N 35°16' E 139°46'713.8
2017-Nov-12 07:01N 35°22' E 139°42'1019.1
2017-Nov-12 06:31N 35°29' E 139°50'815.6
2017-Nov-12 06:00N 35°36' E 139°46'2 0.3
2017-Nov-11 23:36N 35°38' E 139°46'0 1.1
2017-Nov-11 23:30N 35°38' E 139°46'611.3
2017-Nov-11 23:00N 35°34' E 139°50'713.4
2017-Nov-11 22:30N 35°27' E 139°49'713.5
2017-Nov-11 22:00N 35°21' E 139°45'511.1
2017-Nov-11 21:31N 35°16' E 139°47'612.4
2017-Nov-11 21:00N 35°10' E 139°47'815.7
2017-Nov-11 20:30N 35°02' E 139°44'1013.0
2017-Nov-11 19:46N 34°53' E 139°48'916.5
2017-Nov-11 19:12N 34°54' E 139°60'  

Dump ship's entire track history